Date,TemperatureHighF,TemperatureAvgF,TemperatureLowF,DewpointHighF,DewpointAvgF,DewpointLowF,HumidityHigh,HumidityAvg,HumidityLow,PressureMaxIn,PressureMinIn,WindSpeedMaxMPH,WindSpeedAvgMPH,GustSpeedMaxMPH,PrecipitationSumIn
2013-5-1,76,69,64,71,67,63,98,92,83,30.07,29.98,7,1,10,0.00
2013-5-2,70,68,67,69,68,66,98,97,92,30.03,29.91,10,1,10,6.45
2013-5-3,70,67,66,67,66,64,98,94,80,29.92,29.83,16,2,16,2.57
2013-5-4,70,68,66,70,66,62,98,93,79,29.84,29.70,15,2,15,0.71
2013-5-5,77,67,61,70,61,52,98,81,44,29.89,29.72,2,0,2,0.48
2013-5-6,73,64,56,58,53,48,96,71,42,29.98,29.86,4,0,0,0.00
2013-5-7,77,65,54,62,57,53,96,78,58,30.02,29.90,5,0,0,0.00
2013-5-8,80,68,57,66,61,56,98,80,50,30.10,30.00,2,0,0,0.00
2013-5-9,82,70,61,70,64,60,98,80,52,30.13,30.07,6,0,0,0.00
2013-5-10,84,73,61,71,66,60,98,81,52,30.13,30.00,7,0,0,0.00
2013-5-11,88,74,68,73,69,66,97,85,57,30.05,29.91,2,0,0,0.01
2013-5-12,85,74,67,71,67,64,98,81,55,30.02,29.92,4,0,2,0.00
2013-5-13,78,68,58,64,54,43,94,65,28,30.14,29.99,4,0,1,0.00
2013-5-14,76,62,51,58,52,48,96,74,37,30.24,30.15,5,0,0,0.00
2013-5-15,82,68,55,66,57,51,98,74,37,30.23,30.08,7,0,0,0.00
2013-5-16,83,71,61,69,64,59,96,81,56,30.13,30.04,6,0,0,0.00
2013-5-17,84,72,62,70,66,61,98,82,54,30.12,30.04,7,0,5,0.00
2013-5-18,83,74,66,73,70,65,98,87,64,30.14,30.03,12,1,0,0.51
2013-5-19,83,74,68,74,71,68,98,89,73,30.10,30.01,6,1,4,0.02
2013-5-20,80,73,69,75,71,68,98,94,81,30.10,30.01,6,0,1,0.89
2013-5-21,82,74,69,75,71,68,99,90,74,30.06,29.96,8,0,0,0.00
2013-5-22,81,73,67,75,71,67,99,92,74,30.01,29.92,7,0,1,0.69
2013-5-23,87,76,69,74,71,68,99,86,60,29.98,29.90,4,0,0,0.00
2013-5-24,89,77,69,72,67,57,98,74,37,30.10,29.94,4,0,0,0.00
2013-5-25,80,72,62,67,60,54,97,68,42,30.25,30.10,7,1,5,0.00
2013-5-26,82,67,58,68,59,52,98,79,39,30.24,30.15,4,0,2,0.00
2013-5-27,82,73,59,70,65,58,98,76,61,30.22,30.14,4,0,6,0.00
2013-5-28,82,75,70,71,67,64,88,76,65,30.19,30.13,7,1,4,0.00
2013-5-29,83,78,74,76,73,69,93,84,74,30.18,30.10,7,1,6,0.07
2013-5-30,84,78,73,76,74,72,97,86,74,30.18,30.10,7,1,9,0.14
2013-5-31,84,77,73,75,72,71,97,87,72,30.16,30.09,7,1,4,0.01